Miscellaneous Local Product
Issued by NWS Hastings, NE

Home | Current Version | Previous Version | Text Only | Print | Product List | Glossary On
Versions: 1 2 3 4 5 6 7 8 9 10 11 12 13 14 15 16 17 18 19 20 21 22 23 24 25 26 27 28 29 30 31 32 33 34 35 36 37 38 39 40 41 42 43 44 45 46 47 48 49 50
494
AXUS43 KGID 251302
MISGRI

GID CWA HOURLY WEATHER ROUNDUP
NATIONAL WEATHER SERVICE HASTINGS NE
700 AM CST SAT FEB 25 2017

NOTE: "FAIR" INDICATES FEW OR NO CLOUDS BELOW 12,000 FEET WITH NO
SIGNIFICANT WEATHER AND/OR OBSTRUCTIONS TO VISIBILITY.

...SOUTH CENTRAL NEBRASKA...

CITY           SKY/WX    TMP DP  RH WIND       PRES   REMARKS
GRAND ISLAND   CLOUDY    10   7  87 W8        30.11S WCI  -2
HASTINGS       CLOUDY    12   7  80 W6        30.12S WCI   3
KEARNEY        CLOUDY    10   7  85 CALM      30.10S
ORD            CLOUDY     4   0  83 CALM      30.07F
YORK           CLOUDY    10   9  92 W8        30.11F WCI  -1
AURORA         CLOUDY    10   7  87 W5        30.11S WCI   2
LEXINGTON      CLEAR      5   1  83 NW5       30.08F WCI  -4
HOLDREGE       CLEAR     11   7  82 CALM      30.09S
HEBRON         CLEAR     14  10  83 CALM      30.14F

...NEBRASKA PANHANDLE...

CITY           SKY/WX    TMP DP  RH WIND       PRES   REMARKS
CHADRON        CLOUDY     4   0  83 W7        29.96F WCI  -8
ALLIANCE       CLOUDY   -10 -15  78 W5        29.93S WCI -22
SCOTTSBLUFF    CLOUDY     0  -4  83 NW9       29.97S FOG     WCI -15
SIDNEY         CLEAR      6   2  83 W9        29.95S WCI  -8

...WESTERN AND NORTH CENTRAL NEBRASKA...

CITY           SKY/WX    TMP DP  RH WIND       PRES   REMARKS
VALENTINE      CLOUDY     0  -5  79 SW6       29.99F WCI -12
AINSWORTH      CLOUDY     7   5  91 SW9       29.99F WCI  -7
ONEILL         CLOUDY     8   6  90 CALM      30.05F
BROKEN BOW     CLOUDY     5   1  83 CALM      30.04F
IMPERIAL       CLEAR     11   8  88 SW5       30.02F WCI   3
NORTH PLATTE   MOCLDY     5   1  83 CALM      30.05F
MCCOOK         CLEAR      9   6  88 W7        30.09F WCI  -2

...EASTERN NEBRASKA...

CITY           SKY/WX    TMP DP  RH WIND       PRES   REMARKS
NORFOLK        CLOUDY     8   4  83 VRB5      30.08F WCI   0
SO SIOUX CITY  CLOUDY    13   9  84 NW6       30.09F WCI   4
TEKAMAH        CLEAR     14   9  80 NW10      30.11S WCI   1
COLUMBUS       CLOUDY    12   7  79 SW3       30.11S
ALBION         CLOUDY     7   2  82 CALM      30.09S
OMAHA EPPLEY   CLOUDY    17  10  74 CALM      30.11S
OFFUTT AFB     CLOUDY    14   9  81 CALM      30.10S
MILLARD        CLOUDY    20  15  81 NW6       30.12S WCI  12
LINCOLN        CLOUDY    16  10  77 W3        30.14S
NEBRASKA CITY  CLEAR     16  10  78 W7        30.11R WCI   6
BEATRICE       CLOUDY    17  12  83 W10       30.15R WCI   4
FALLS CITY     CLEAR     17  12  80 W8        30.13R WCI   7

...NORTHERN KANSAS...

CITY           SKY/WX    TMP DP  RH WIND       PRES   REMARKS
GOODLAND       CLOUDY    20  16  84 SW10      30.04F WCI   9
HILL CITY      CLOUDY    11   8  88 W5        30.14S WCI   3
PHILLIPSBURG   CLEAR     12   9  85 CALM      30.15S
SMITH CENTER   CLEAR      9   7  92 SW3       30.15F
HAYS           CLEAR      8   4  83 W6        30.17S WCI  -2
RUSSELL        CLEAR      7   4  87 SW6       30.16R WCI  -3
CONCORDIA      CLEAR     14  10  84 W7        30.16S WCI   4
SALINA         CLEAR     18  12  77 W6        30.19F WCI  10
TOPEKA         CLEAR     19  16  88 W6        30.17R WCI  11



USA.gov is the U.S. government's official web portal to all federal, state and local government web resources and services.